Notices

What's New in latest Release from April 7th, 2021:

- Updated Glossary, including Speed of Maximum Gust, and Total Hourly Precipitation

- Updated national and regional climate services offices contacts and prices information

- Addition of station inventory lists for 1981-2010, 1971-2000, and 1961-1990 Normals.

If you haven't already, please take our survey and provide feedback about our website: https://eccc.sondage-survey.ca/f/LanguageSelection.aspx?s=442ca660-fcf1-47c0-95a9-59707d6fd709

Hourly Data Report for November 27, 2019

VICTORIA UNIVERSITY CS
BRITISH COLUMBIA
Current Station Operator: ECCC - MSC

48°27'25.200" N
123°18'16.600" W
60.10 m
1018598
71783
WYJ

Download Data

Hourly Data (November 2019)
Hourly Data Report for November 27, 2019
TIME
LST
Temp Definition
°C
Dew Point Definition
°C
Rel Hum Definition
%
Precip. Amount Definition
mm

Wind Dir Definition
10's deg

Wind Spd Definition
km/h
Visibility Definition
km
Stn Press Definition
kPa
Hmdx Definition


Wind Chill Definition


Weather Definition


00:00 4.9 -6.1 45 0.0 4 13   99.64     LegendNANA
01:00 4.9 -5.6 46 0.0 3 11   99.60     LegendNANA
02:00 4.9 -5.5 47 0.0 3 12   99.58     LegendNANA
03:00 4.9 -5.6 46 0.0 4 13   99.54     LegendNANA
04:00 5.0 -6.0 45 0.0 3 14   99.50     LegendNANA
05:00 5.1 -6.0 44 0.0 3 13   99.50     LegendNANA
06:00 5.3 -5.9 44 0.0 3 12   99.55     LegendNANA
07:00 5.3 -6.6 42 0.0 4 13   99.59     LegendNANA
08:00 5.1 -6.1 44 0.0 4 12   99.63     LegendNANA
09:00 5.3 -5.8 45 0.0 3 13   99.67     LegendNANA
10:00 6.0 -6.6 40 0.0 3 17   99.70     LegendNANA
11:00 6.2 -5.6 43 0.0 4 15   99.74     LegendNANA
12:00 5.4 -7.7 38 0.0 3 18   99.74     LegendNANA
13:00 5.3 -6.8 41 0.4 4 11   99.75     LegendNANA
14:00 5.3 -7.3 40 0.0 4 15   99.77     LegendNANA
15:00 4.9 -7.5 40 0.0 4 11   99.79     LegendNANA
16:00 4.7 -8.1 39 0.0 3 16   99.86     LegendNANA
17:00 4.3 -7.5 42 0.0 4 15   99.89     LegendNANA
18:00 3.9 -7.9 42 0.3 4 15   99.99     LegendNANA
19:00 3.7 -8.1 42 0.0 3 18   100.07     LegendNANA
20:00 3.6 -7.6 44 0.0 3 17   100.14     LegendNANA
21:00 3.5 -7.7 43 0.0 4 13   100.19     LegendNANA
22:00 3.4 -8.5 41 0.0 3 18   100.25     LegendNANA
23:00 3.1 -8.6 42 0.0 2 17   100.28     LegendNANA

Notes on Data Quality.

Legend

  • E = Estimated
  • M = Missing
  • NA = Not Available*
  • [empty] = Indicates an unobserved value
Date modified: